Regional Weather Roundup
Issued by NWS

Home | Current Version | Previous Version | Text Only | Print | Product List | Glossary Off
Versions: 1 2 3 4 5 6 7 8 9 10 11 12 13 14 15 16 17 18 19 20 21 22 23 24 25 26 27 28

000
ASUS45 KSLC 272010
RWRUT

UTAH REGIONAL WEATHER ROUNDUP
NATIONAL WEATHER SERVICE SALT LAKE CITY UT
200 PM MDT SAT AUG 27 2016

UTZ001>011-023>025-272100-

NORTHERN UTAH

CITY           SKY/WX    TMP DP  RH WIND       PRES   REMARKS
BRIGHAM CITY     N/A     82  34  18 S10       30.06S
HILL AFB       SUNNY     81  38  21 VRB5      30.08F
LOGAN          SUNNY     80  38  22 VRB3      30.06F
OGDEN          SUNNY     82  39  21 VRB5      30.06S
PROVO AIRPORT  MOSUNNY   81  36  19 MISG      30.07F
SALT LAKE CITY MOSUNNY   86  34  15 SW8       30.03F
VERNAL         SUNNY     73  47  39 VRB6      30.14F
WENDOVER       SUNNY     82  34  17 E8        30.05F
HEBER CITY     SUNNY     82  28  14 SW13G18   30.10S
WEST JORDAN    SUNNY     80  37  21 SE3       30.07F

$$

UTZ012>022-026-027-272100-

SOUTHERN/CENTRAL UTAH

CITY           SKY/WX    TMP DP  RH WIND       PRES   REMARKS
BLANDING       CLOUDY    71  42  36 SW6       30.28S
BRYCE CANYON   LGT RAIN  50  47  89 SE8       30.34S
CEDAR CITY     CLOUDY    69  48  47 CALM      30.17F
MILFORD        PTSUNNY   75  45  34 SW17G24   30.13F
MOAB/CYNLANDS  CLOUDY    78  43  28 SE8       30.10F
PRICE          MOSUNNY   74  40  29 S7        30.18F
ST GEORGE      CLEAR     75  54  46 E14       30.11S

$$

REGIONAL REPORTS     COLORADO/ARIZONA

CITY           SKY/WX    TMP DP  RH WIND       PRES   REMARKS
CRAIG, CO      SUNNY     78  26  14 W12G17    30.18F
GRAND JUNCTION MOSUNNY   76  46  34 SW10      30.13F
RIFLE          PTSUNNY   70  48  45 NE8       30.17F
MONTROSE       CLOUDY    72  43  35 SW6       30.19S
CORTEZ         CLOUDY    73  48  41 NW8G23    30.19S
PAGE, AZ       CLOUDY    67  52  58 VRB6      30.17F
GRAND CANYON   CLOUDY    62  51  67 SW9       30.27F
KINGMAN        CLOUDY    70  56  61 E7        30.09F
FLAGSTAFF      PTSUNNY   63  47  55 SW12      30.27F

$$

REGIONAL REPORTS    NEVADA/IDAHO/WYOMING

CITY           SKY/WX    TMP DP  RH WIND       PRES   REMARKS
LAS VEGAS, NV  MOSUNNY   84  49  29 NE7       30.00F
ELY            SUNNY     80  25  13 N9        30.16F
ELKO           SUNNY     84  17   8 MISG      30.08F
POCATELLO, ID  SUNNY     82  28  14 W20       30.03F
BURLEY         SUNNY     80  36  20 VRB7      29.99F
EVANSTON, WY   SUNNY     75  22  13 SW20G25   30.20F
ROCK SPRINGS   SUNNY     74  21  13 W15G24    30.18F

$$




USA.gov is the U.S. government's official web portal to all federal, state and local government web resources and services.